Other Public Products
Issued by NWS Grand Forks, ND

Home | Current Version | Previous Version | Graphics & Text | Print | Product List | Glossary Off
Versions: 1 2 3 4 5 6 7 8 9 10 11 12 13 14 15 16 17 18 19 20 21 22 23 24 25 26 27 28 29 30 31 32 33 34 35 36 37 38 39 40 41 42 43 44 45 46 47 48 49 50

000
FPUS83 KFGF 281110
OPUFGF
PRAIRIE TO PINES WEATHER ROUNDUP
NATIONAL WEATHER SERVICE EASTERN NORTH DAKOTA/GRAND FORKS ND
600 AM CDT TUE JUL 28 2015

 **SATELLITE DATA USED TO AUGMENT SKY COVER AT AUTOMATED STATIONS**
 *****  WEATHER ACROSS EASTERN NORTH DAKOTA  *****

CITY           SKY/WX    TMP DP  RH WIND       PRES   REMARKS
GRAND FORKS    CLOUDY    73  70  88 SE25G37   29.57S
GRAND FORKS AF CLOUDY    75  71  87 S21G36    29.57S
GRAND CITY NWS   N/A     72 N/A N/A S28         N/A
BUXTON         NOT AVBL
DEVILS LAKE    CLOUDY    72  63  73 S8        29.55S
FARGO          LGT RAIN  71  69  93 E16       29.55F
WAHPETON ARPT  CLOUDY    68  64  88 SE8       29.64R
$$

 *****  WEATHER ACROSS CENTRAL AND WESTERN NORTH DAKOTA  *****

CITY           SKY/WX    TMP DP  RH WIND       PRES   REMARKS
JAMESTOWN      CLOUDY    68  63  84 S9        29.63R
BISMARCK       PTCLDY    62  56  80 W15       29.69R
MINOT          CLOUDY    65  56  72 SW15G25   29.58R
MINOT AFB      CLOUDY    65  61  88 SW14G22   29.56R
GARRISON         N/A     63  56  78 W21G30    29.63R
WILLISTON      MOCLDY    60  54  80 SW24G35   29.57F
DICKINSON      PTCLDY    56  50  80 W25G37    29.71R
HETTINGER      CLEAR     55  48  77 W22G32    29.82R
$$

 *****  OTHER OBSERVATIONS NORTHEAST NORTH DAKOTA  *****

CITY           SKY/WX    TMP DP  RH WIND       PRES   REMARKS
WALHALLA       FAIR      73  73 100 MISG      29.56R
LANGDON        PTSUNNY   73  72  94 SE9       29.58R
CAVALIER       CLOUDY    73  72  94 S10G16    29.57R
GRAFTON        CLOUDY    75  73  94 SE25      29.56S
CANDO          NOT AVBL
FORT TOTTEN      N/A     70  65  84 S6        29.95S
ROLLA          FAIR      66  66 100 S6        29.55R
RUGBY          NOT AVBL
 ***** THE ABOVE OBSERVATIONS ARE NON NWS ARE NOT QUALITY
        CONTROLLED AND MAY MIS-REPORT RAIN FOR SNOW...
$$

 *****  OTHER OBSERVATIONS SOUTHEAST NORTH DAKOTA *****

CITY           SKY/WX    TMP DP  RH WIND       PRES   REMARKS
COOPERSTOWN    NOT AVBL
VALLEY CITY    FAIR      66  66 100 S7        29.64R
OAKES            N/A     66  66 100 SW7       29.68R
GWINNER        PTSUNNY   68  68 100 SW8       29.68R
SHEYENNE NWR     N/A     67  66  97 SE12      29.95S
BUFFALO        NOT AVBL
WYNDMERE         N/A     70  70 100 SE5         N/A
 ***** THE ABOVE OBSERVATIONS ARE NON NWS ARE NOT QUALITY
       CONTROLLED AND MAY MIS-REPORT RAIN FOR SNOW...
$$

  *****  WEATHER ACROSS NORTHERN MINNESOTA  *****

CITY           SKY/WX    TMP DP  RH WIND       PRES   REMARKS
FLAG ISLAND    CLOUDY    75  70  83 SE18      29.68F
WARROAD        CLOUDY    72  68  88 SE9       29.68F
ROSEAU         CLOUDY    73  68  83 SE9       29.65F
HALLOCK        CLOUDY    75  72  88 SE18      29.57S
THF RVR FALLS  CLOUDY    73  70  88 SE13G20   29.65S
HALSTAD        NOT AVBL
FOSSTON        TSTM      70  68  94 S16       29.70S
BAUDETTE       CLOUDY    72  68  87 SE10      29.71F
WASKISH        CLOUDY    73  70  88 SE7       29.71F
CROOKSTON      TSTM      70  68  94 S23G32    29.61F
$$
  *****  WEATHER ACROSS CENTRAL AND WEST MINNESOTA  *****

CITY           SKY/WX    TMP DP  RH WIND       PRES   REMARKS
BEMIDJI        CLOUDY    73  68  84 S14G20    29.73F
PARK RAPIDS    RAIN      72  68  87 S10       29.73F FOG
WADENA         CLOUDY    68  66  94 E6        29.71F
DETROIT LAKES  RAIN      70  68  94 S9        29.70F
MOORHEAD       LGT RAIN  70  68  94 E13       29.60F
FERGUS FALLS   LGT RAIN  70  68  94 E20G25    29.58F
ELBOW LAKE     FAIR      68  67  96 SE6       29.68F
MORRIS MN      CLOUDY    70  70 100 SE10      29.65F
STAPLES        TSTM      70  68  94 CALM      29.75F
WHEATON        CLOUDY    66  64  94 SE13      29.66R
$$
  *****  WEATHER ELSEWHERE ACROSS MINNESOTA  *****

CITY           SKY/WX    TMP DP  RH WIND       PRES   REMARKS
DULUTH         MOCLDY    69  65  86 SE10      29.85F
INTRNTL FALLS  MOCLDY    69  66  90 SE9       29.77S
ELY            CLEAR     68  63  83 SE8       29.87S
CLOQUET        MOCLDY    70  66  88 E3        29.84F
BRAINERD       TSTM      72  70  93 S8        29.79R FOG
HIBBING        CLOUDY    69  67  93 SE9       29.82F
ALEXANDRIA     LGT RAIN  67  66  97 E13G25    29.65F
SAINT CLOUD    TSTM      71  71 100 W6G20     29.81R VSB 1/2
MINNEAPOLIS    LGT RAIN  75  70  84 SE16G23   29.80S
$$

  *****  WEATHER ACROSS SOUTH DAKOTA  *****

CITY           SKY/WX    TMP DP  RH WIND       PRES   REMARKS
SIOUX FALLS    CLOUDY    70  66  87 E14G22    29.71F
BROOKINGS      CLOUDY    70  63  78 SE16G22   29.66F
WATERTOWN      CLOUDY    68  65  90 SE3       29.69R
HURON          CLOUDY    68  67  96 SW9       29.73R
SISSETON         N/A     67  66  97 SW8       29.65R
ABERDEEN       CLOUDY    68  65  90 SW14      29.70R
MITCHELL       CLOUDY    69  68  96 S8        29.74R
PIERRE         CLOUDY    63  57  81 NW20G30   29.78R
MOBRIDGE       MOCLDY    63  59  87 W13       29.73R
RAPID CITY     CLEAR     52  45  77 NW6       29.94R
$$

  *****  SOME WEATHER IN NEARBY STATES *****

CITY           SKY/WX    TMP DP  RH WIND       PRES   REMARKS
GLASGOW MT     LGT RAIN  57  54  89 W24G30    29.61F
GREAT FALLS MT CLOUDY    51  45  79 SW15      30.04R
CHEYENNE WY    CLEAR     57  29  34 NW18G29   30.14R
SCOTTSBLUFF NE CLEAR     55  48  77 NW8       30.03R
OMAHA NE       MOCLDY    79  73  82 S15       29.77R
DES MOINES IA  PTCLDY    74  69  85 S10       29.84F
DAVENPORT IA   PTCLDY    70  68  93 SE5       29.96R
CHICAGO IL     PTCLDY    71  66  84 CALM      29.99R
EAU CLAIRE WI  PTCLDY    72  65  78 SE12      29.89S
LA CROSSE WI   CLEAR     73  65  75 SE8       29.91R
$$

  *****  SOME NATIONAL WEATHER *****

CITY           SKY/WX    TMP DP  RH WIND       PRES   REMARKS
LA GUARDIA NY  MOSUNNY   77  69  76 CALM      30.00R
RALEIGH NC     PTCLDY    74  71  91 CALM      30.02R
ATLANTA GA     PTCLDY    78  70  76 NW3       30.00R
NEW ORLEANS LA PTCLDY    80  74  81 CALM      29.98R
OKLAHOMA CITY  CLEAR     75  68  78 S8        29.91R
ALBUQUERQUE NM PTCLDY    77  51  40 S12       30.09S
SALT LAKE CITY CLEAR     55  38  52 S3        30.20R
LOS ANGELES CA MOCLDY    67  63  87 CALM      29.88S
BOISE ID       CLEAR     53  36  52 SE3       30.21R
SEATTLE WA     MOCLDY    60  52  74 NE10      30.27S
$$

*** WEATHER ACROSS MANITOBA...SASKATCHEWAN AND ONTARIO ***
                ***ONTARIO***

CITY           SKY/WX    TMP DP  RH WIND       PRES   REMARKS
GERALDTON      PTCLDY    61  55  82 CALM      29.95F
THUNDER BAY    MOCLDY    61  59  94 NE5       29.93R
SIOUX LOOKOUT  MOCLDY    68  63  83 SE5       29.84S
TORONTO        PTCLDY    70  59  68 NW6       30.03R
BIG TROUT LK   PTCLDY    59  57  94 E3        29.84F
PICKLE LAKE    PTCLDY    66  61  82 SE5       29.86
DRYDEN         CLEAR     70  63  78 SE9       29.82S
KENORA         MOCLDY    72  68  88 SE9G17    29.74F
$$
                *** MANITOBA***

CITY           SKY/WX    TMP DP  RH WIND       PRES   REMARKS
BRANDON        CLOUDY    72  72 100 SE7       29.47F FOG
DAUPHIN        CLOUDY    64  63  94 N3        29.49F
ISLAND LAKE    MOCLDY    66  61  82 E3        29.78F
PILOT MOUND      N/A     70  68  94 SE8         N/A
THE PAS        LGT RAIN  63  61  94 N5        29.75F
THOMPSON       MOCLDY    55  52  88 NE3       29.79F
WINNIPEG       MOCLDY    73  72  94 SE14G25   29.58S
LYNN LAKE      CLOUDY    55  52  88 S2        29.79R
CHURCHILL      FOG       48  48 100 N10       29.78R VSB 1/8
GILLAM         MOCLDY    59  55  88 SW2       29.80F
$$
                ***SASKATCHEWAN***

CITY           SKY/WX    TMP DP  RH WIND       PRES   REMARKS
ESTEVAN        CLOUDY    61  59  94 SW17G28   29.46F
KINDERSLEY     CLOUDY    57  55  94 NW13G18   29.80R
LLOYDMINSTER   MOCLDY    54  46  76 NW13      29.85S
PRINCE ALBERT  LGT RAIN  57  55  94 E15G21    29.68F
REGINA         LGT RAIN  63  61  94 E2        29.36


USA.gov is the U.S. government's official web portal to all federal, state and local government web resources and services.